Weather observations for the past three days for
Arlington Municipal Airport
Imperial (Metric)
Date Time (pdt) Wind (mph) Vis. (mi.) Weather Sky Cond. Temperature (ºF) Relative Humidity Wind Chill (°F) Heat Index (°F) Pressure Precipitation (in)
Air Dwpt 6 hour altimeter (in) sea level (mb) 1 hr 3 hr 6 hr
Max. Min.
15 08:56 SE 8 10.00 Overcast OVC008 59 55 87% 30.15 1021.4 0.03
15 07:56 Calm 9.00 Overcast OVC006 57 55 93% 30.15 1021.2
15 06:56 Calm 5.00 Fog/Mist OVC006 55.9 54 93% 30.14 1021.0
15 05:56 Calm 6.00 Fog/Mist OVC004 55 53.1 93% 30.13 1020.7
15 04:56 NW 5 10.00 Overcast OVC006 55 53.1 59 53.1 93% 30.12 1020.2
15 03:56 NW 3 10.00 Overcast OVC006 55 53.1 93% 30.11 1019.9
15 02:56 NW 3 10.00 Fair CLR 53.1 51.1 93% 30.1 1019.5
15 01:56 NW 5 10.00 Fair CLR 55 52 90% 30.09 1019.3
15 00:56 N 3 10.00 Fair CLR 55 52 90% 30.08 1019.1
14 23:56 W 7 10.00 Fair CLR 57.9 53.1 84% 30.07 1018.6
14 22:56 NW 5 10.00 Fair CLR 59 53.1 82 59 81% 30.06 1018.2
14 21:56 NW 9 10.00 NULL NULL 62.1 54 75% 30.05 1017.8
14 20:56 NW 14 10.00 NULL NULL 64.9 55 70% 30.03 1017.1
14 19:56 NW 10 10.00 Fair CLR 71.1 55 57% 30.01 1016.5
14 18:56 NW 12 10.00 Fair CLR 75.9 57.9 54% 78 30 1016.3
14 17:56 NW 12 10.00 Fair CLR 79 60.1 52% 80 30 1016.2
14 16:56 NW 12 10.00 Fair CLR 82 61 84.9 75 49% 83 30 1016.3
14 15:56 NW 7 10.00 Fair CLR 84 60.1 44% 84 30.01 1016.6
14 14:56 S 8 10.00 NULL NULL 82.9 57 41% 82 30.02 1016.9
14 13:56 Vrbl 6 10.00 NULL NULL 81 62.1 53% 82 30.02 1017.0
14 12:56 N 9 10.00 Fair CLR 80.1 62.1 54% 81 30.02 1017.0
14 11:56 NW 5 5.00 Fair with Haze CLR 78.1 62.1 58% 80 30.03 1017.3
14 10:56 Calm 5.00 Haze NULL 75 59 75.9 54 58% 77 30.03 1017.3
14 09:56 Calm 10.00 Fair CLR 72 60.1 66% 30.03 1017.4
14 08:56 Calm 8.00 Fair CLR 68 57.9 70% 30.03 1017.3
14 07:56 Calm 10.00 Fair CLR 63 57 81% 30.04 1017.4
14 06:56 Calm 10.00 Fair CLR 57.9 55 90% 30.03 1017.3
14 05:56 Calm 10.00 Fair CLR 55 54 96% 30.01 1016.7
14 04:56 NW 3 10.00 Fair CLR 55 54 64.9 54 96% 30.01 1016.5
14 03:56 N 5 10.00 Fair CLR 55.9 55 97% 30 1016.1
14 02:56 Calm 10.00 Fair CLR 57 55 93% 29.99 1015.9
14 01:56 N 5 10.00 Fair CLR 57 54 90% 29.99 1016.0
14 00:56 Calm 10.00 Fair CLR 62.1 55 78% 30 1016.1
13 23:56 Calm 10.00 Fair CLR 64 55 73% 29.99 1016.0
13 22:56 Calm 10.00 NULL NULL 64.9 55.9 82.9 64 73% 29.99 1015.8
13 21:56 NW 9 10.00 NULL NULL 66.9 57 71% 29.98 1015.5
13 20:56 NW 9 10.00 Fair CLR 72 57.9 61% 29.97 1015.1
13 19:56 NW 13 10.00 Fair CLR 75.9 59 56% 78 29.96 1014.8
13 18:56 NW 12 10.00 Fair CLR 80.1 57 45% 80 29.96 1014.8
13 17:56 NW 14 10.00 Fair CLR 82 55.9 41% 82 29.96 1014.8
13 16:56 NW 13 10.00 Fair CLR 82.9 57.9 84 73.9 43% 83 29.97 1015.2
13 15:56 NW 12 10.00 Fair CLR 84 59 43% 84 29.98 1015.7
13 14:56 NW 9 10.00 Fair CLR 82 61 49% 83 29.99 1015.9
13 13:56 NW 9 10.00 Fair CLR 80.1 61 52% 81 30.01 1016.4
13 12:56 NW 8 10.00 Fair CLR 78.1 60.1 54% 79 30.02 1016.8
13 11:56 NW 8 10.00 Fair CLR 77 60.1 56% 79 30.02 1016.9
13 10:56 Vrbl 7 10.00 Fair CLR 73.9 59 75 53.1 60% 30.03 1017.1
13 09:56 NW 6 10.00 Fair CLR 72 57 59% 30.03 1017.3
13 08:56 Vrbl 3 10.00 Fair CLR 68 57.9 70% 30.05 1017.8
13 07:56 Calm 10.00 Fair CLR 63 57 81% 30.05 1017.9
Date Time (pdt) Wind (mph) Vis. (mi.) Weather Sky Cond. Air Dwpt Max. Min. Relative Humidity Wind Chill (°F) Heat Index (°F) altimeter (in) sea level (mb) 1 hr 3 hr 6 hr
6 hour
Temperature (ºF) Pressure Precipitation (in)